Location: �terpigny
(49.8910°N, 2.9249°E)
Time: 15:29:37
(UTC+00:00)

EO-88 - Pass Details

Date: 27 June 2022
Orbit: 453 x 461 km, 97.3° (Epoch: 14 August)

Event Time Altitude Azimuth Distance (km) Brightness Sun altitude
Exits shadow 20:55:45 - 158° (SSE) 1,765 ? -7.1°
Reaches altitude 10° 20:56:04 10° 157° (SSE) 1,627 ? -7.1°
Maximum altitude 20:59:33 69° 74° (ENE) 509 ? -7.5°
Drops below altitude 10° 21:03:03 10° 352° (N) 1,640 ? -7.8°
Sets 21:05:07 0° 350° (N) 2,522 ? -8.1°
